Terminal Aerodrome Forecast
Issued by NWS

Home | Current Version | Previous Version | Graphics & Text | Print | Product List | Glossary On
Versions: 1 2 3 4 5 6 7 8 9 10 11 12 13 14 15 16 17 18 19 20 21 22 23 24 25 26 27 28 29 30 31 32 33 34
000
FTUS43 KLOT 181458 AAA
TAFORD
TAF AMD
KORD 181458Z 1815/1918 06014G21KT P6SM SCT100 BKN150
     FM182000 06015G23KT P6SM BKN040 OVC060
      TEMPO 1822/1902 -SHRA BKN035 OVC060
     FM190200 06013KT 6SM -SHRA BKN020 OVC040
     FM190600 06008KT 5SM -SHRA BR FEW004 SCT006 OVC010
     FM191300 01005KT P6SM SCT009 OVC015=

USA.gov is the U.S. government's official web portal to all federal, state and local government web resources and services.